Location: Lixville
(37.5770°N, 89.9118°W)
Time: 07:16:05
(UTC+00:00)

SR - Visible Passes

Search period start: 16 April 2026 00:00
Search period end: 26 April 2026 00:00
Orbit: 570 x 850 km, 66.7° (Epoch: 15 April)

Date Brightness Start Highest point End Pass type
(mag) Time Alt. Az. Time Alt. Az. Time Alt. Az.
16 Apr ? 04:48:02 10° NNW 04:50:08 22° N 04:50:08 22° N visible
17 Apr ? 03:53:38 10° N 03:56:28 20° NNE 03:56:28 20° NNE visible
17 Apr ? 05:34:26 10° NW 05:35:29 16° NW 05:35:29 16° NW visible
18 Apr ? 03:00:29 10° NNE 03:02:11 11° NE 03:02:49 11° NE visible
18 Apr ? 04:39:19 10° NNW 04:41:50 27° NNW 04:41:50 27° NNW visible
19 Apr ? 03:44:39 10° N 03:48:13 27° NNE 03:48:13 27° NNE visible
19 Apr ? 05:26:07 10° NW 05:27:14 16° NW 05:27:14 16° NW visible
20 Apr ? 02:50:37 10° N 02:54:00 16° NE 02:54:37 16° NE visible
20 Apr ? 04:30:44 10° NNW 04:33:39 32° NNW 04:33:39 32° NNW visible
21 Apr ? 03:35:50 10° NNW 03:40:05 39° NNE 03:40:05 39° NNE visible
21 Apr ? 05:18:01 10° NW 05:19:07 15° WNW 05:19:07 15° WNW visible
22 Apr ? 02:41:24 10° N 02:45:45 22° NE 02:46:33 22° ENE visible
22 Apr ? 04:22:16 10° NW 04:25:36 35° NW 04:25:36 35° NW visible
23 Apr ? 01:48:07 10° NNE 01:50:01 12° NE 01:51:56 10° ENE visible
23 Apr ? 03:27:07 10° NNW 03:32:06 60° NNE 03:32:06 60° NNE visible
23 Apr ? 05:10:18 10° WNW 05:11:08 13° WNW 05:11:08 13° WNW visible
24 Apr ? 02:32:25 10° N 02:37:25 31° NE 02:38:39 29° ENE visible
24 Apr ? 04:13:56 10° NW 04:17:41 33° WNW 04:17:41 33° WNW visible
25 Apr ? 01:38:20 10° N 01:41:50 16° NE 01:45:14 10° E visible
25 Apr ? 03:18:31 10° NNW 03:24:13 86° WSW 03:24:17 86° SW visible
